Weather History for KBGM - July, 2014

Change the Weather History Date:

Sunday, July 20, 2014

  Actual Average Record
Temperature  
Mean Temperature 68 °F 69 °F  
Max Temperature 75 °F 78 °F 93 °F (1991)
Min Temperature 61 °F 60 °F 47 °F (1965)
Degree Days  
Heating Degree Days 0 1  
Month to date heating degree days 8 20  
Since 1 June heating degree days 53 111  
Since 1 July heating degree days 8 20  
Cooling Degree Days 3 5  
Month to date cooling degree days 88 91  
Year to date cooling degree days 198 188  
Since 1 June cooling degree days 173 165  
Growing Degree Days 18 (Base 50)    
Moisture  
Dew Point 56 °F    
Average Humidity 65    
Maximum Humidity 84    
Minimum Humidity 46    
Precipitation  
Precipitation 0.01 in 0.12 in 1.59 in (2008)
Month to date precipitation 3.00 2.41  
Year to date precipitation 22.73 21.47  
Snow  
Snow 0.00 in 0.00 in 0.00 in (2002)
Month to date snowfall 0.0 0.0  
Since 1 June snowfall 0.0 0.0  
Since 1 July snowfall 0.0 0.0  
Snow Depth 0.00 in    
Sea Level Pressure  
Sea Level Pressure 30.15 in    
Wind  
Wind Speed 5 mph (SSE)    
Max Wind Speed 10 mph    
Max Gust Speed 15 mph    
Visibility 10 miles    
Events Rain    
T = Trace of Precipitation, MM = Missing Value Source: NWS Daily Summary

Daily Weather History Graph

Daily Weather History Graph

Search for Another Location

Airport or City:

Trip Planner

Search our weather history database for the weather conditions in past years. The results will help you decide how hot, cold, wet, or windy it might be!

Date:

Astronomy

Jul. 20, 2014 Rise Set
Actual Time 5:45 AM EDT 8:34 PM EDT
Civil Twilight 5:12 AM EDT 9:07 PM EDT
Nautical Twilight 4:30 AM EDT 9:49 PM EDT
Astronomical Twilight 3:42 AM EDT 10:37 PM EDT
Moon 12:57 AM EDT (7/20) 3:14 PM EDT (7/20)
Length of Visible Light 15h 55m
Length of Day
14h 49m
Waning Crescent, 34% of the Moon is Illuminated
Jul 20
Waning Crescent
Jul 26
New
Aug 3
First Quarter
Aug 10
Full
Aug 17
Last Quarter

Hourly Weather History & Observations

Time (EDT) Temp. Dew Point Humidity Pressure Visibility Wind Dir Wind Speed Gust Speed Precip Events Conditions
12:53 AM 64.0 °F 55.9 °F 75% 30.17 in 10.0 mi SSE 4.6 mph - N/A   Overcast
1:53 AM 64.0 °F 55.0 °F 73% 30.15 in 10.0 mi SSE 6.9 mph - N/A   Overcast
2:53 AM 63.0 °F 55.0 °F 75% 30.15 in 10.0 mi SSE 4.6 mph - N/A   Overcast
3:53 AM 62.1 °F 57.0 °F 84% 30.15 in 10.0 mi SE 4.6 mph - 0.01 in Rain Light Rain
4:53 AM 62.1 °F 55.9 °F 80% 30.15 in 10.0 mi SSE 3.5 mph - 0.00 in   Overcast
5:53 AM 61.0 °F 55.9 °F 83% 30.15 in 10.0 mi SE 4.6 mph - N/A   Overcast
6:53 AM 62.1 °F 55.9 °F 80% 30.16 in 10.0 mi SE 3.5 mph - N/A   Overcast
7:53 AM 62.1 °F 57.0 °F 84% 30.18 in 10.0 mi SE 5.8 mph - N/A   Overcast
8:53 AM 63.0 °F 57.0 °F 81% 30.19 in 10.0 mi SE 6.9 mph - N/A   Overcast
9:53 AM 66.0 °F 57.0 °F 73% 30.19 in 10.0 mi South 4.6 mph - 0.00 in   Overcast
10:53 AM 68.0 °F 55.9 °F 65% 30.18 in 10.0 mi SSE 8.1 mph - 0.00 in   Mostly Cloudy
11:53 AM 70.0 °F 51.1 °F 51% 30.17 in 10.0 mi SE 5.8 mph - N/A   Clear
12:53 PM 73.0 °F 51.1 °F 46% 30.15 in 10.0 mi SE 4.6 mph - N/A   Clear
1:53 PM 72.0 °F 53.1 °F 51% 30.14 in 10.0 mi ESE 3.5 mph - N/A   Scattered Clouds
2:53 PM 73.9 °F 54.0 °F 50% 30.12 in 10.0 mi ESE 5.8 mph - N/A   Overcast
3:53 PM 73.0 °F 57.0 °F 57% 30.12 in 10.0 mi SSW 6.9 mph - N/A   Overcast
4:53 PM 73.9 °F 57.9 °F 57% 30.12 in 10.0 mi SSW 5.8 mph - N/A   Overcast
5:53 PM 73.0 °F 59.0 °F 61% 30.12 in 10.0 mi South 3.5 mph - N/A   Overcast
6:53 PM 72.0 °F 59.0 °F 64% 30.12 in 10.0 mi South 3.5 mph - N/A   Overcast
7:53 PM 70.0 °F 59.0 °F 68% 30.13 in 10.0 mi SSE 5.8 mph - N/A   Overcast
8:53 PM 69.1 °F 57.0 °F 65% 30.13 in 10.0 mi South 4.6 mph - N/A   Scattered Clouds
9:53 PM 68.0 °F 57.0 °F 68% 30.14 in 10.0 mi SSE 4.6 mph - N/A   Scattered Clouds
10:53 PM 68.0 °F 55.9 °F 65% 30.14 in 10.0 mi South 5.8 mph - N/A   Partly Cloudy
11:53 PM 66.0 °F 57.0 °F 73% 30.14 in 10.0 mi SSE 5.8 mph - N/A   Clear